| time (UTC) | temp F | wind direction | speed MPH | gust MPH | rain 1hr in | rain 24hr in | rain mn in | humidity % | barometer mb |
| 20260507101404 | 56 | 71 | 2.0 | 7.0 | 0.00 | 0.23 | 0.03 | 83 | 1008.7 |
| 20260507100904 | 56 | 76 | 2.0 | 7.0 | 0.00 | 0.23 | 0.03 | 83 | 1008.8 |
| 20260507095400 | 56 | 91 | 1.0 | 3.0 | 0.00 | 0.23 | 0.03 | 83 | 1008.7 |
| 20260507094359 | 56 | 23 | 1.0 | 4.0 | 0.00 | 0.23 | 0.03 | 83 | 1008.7 |
| 20260507093858 | 56 | 11 | 2.0 | 7.0 | 0.00 | 0.23 | 0.03 | 83 | 1008.7 |
| 20260507092359 | 56 | 88 | 2.0 | 8.0 | 0.00 | 0.23 | 0.03 | 83 | 1008.3 |
| 20260507091900 | 56 | 97 | 1.0 | 6.0 | 0.00 | 0.23 | 0.03 | 83 | 1008.5 |
| 20260507091359 | 56 | 36 | 2.0 | 6.0 | 0.00 | 0.23 | 0.03 | 83 | 1008.6 |
| 20260507090856 | 56 | 19 | 2.0 | 7.0 | 0.00 | 0.23 | 0.03 | 83 | 1008.7 |
| 20260507090358 | 56 | 110 | 2.0 | 7.0 | 0.00 | 0.23 | 0.03 | 83 | 1008.6 |
| 20260507085852 | 56 | 60 | 2.0 | 6.0 | 0.00 | 0.23 | 0.03 | 83 | 1008.6 |
| 20260507085346 | 56 | 86 | 2.0 | 9.0 | 0.00 | 0.23 | 0.03 | 83 | 1008.6 |
| 20260507084841 | 56 | 97 | 3.0 | 9.0 | 0.00 | 0.23 | 0.03 | 83 | 1008.4 |
| 20260507084340 | 56 | 46 | 2.0 | 7.0 | 0.00 | 0.23 | 0.03 | 83 | 1008.3 |
| 20260507083842 | 57 | 27 | 2.0 | 9.0 | 0.00 | 0.23 | 0.03 | 84 | 1008.4 |
| 20260507083341 | 57 | 99 | 3.0 | 9.0 | 0.00 | 0.23 | 0.03 | 84 | 1008.6 |
| 20260507082840 | 57 | 8 | 2.0 | 9.0 | 0.00 | 0.23 | 0.03 | 85 | 1008.5 |
| 20260507082343 | 57 | 20 | 1.0 | 9.0 | 0.00 | 0.23 | 0.03 | 86 | 1008.3 |
| 20260507081842 | 57 | 103 | 1.0 | 3.0 | 0.00 | 0.23 | 0.03 | 86 | 1008.2 |
| 20260507080829 | 57 | 70 | 1.0 | 4.0 | 0.00 | 0.23 | 0.03 | 86 | 1007.9 |
| 20260507080325 | 57 | 38 | 2.0 | 7.0 | 0.00 | 0.23 | 0.03 | 85 | 1007.8 |
| 20260507075327 | 57 | 62 | 3.0 | 8.0 | 0.00 | 0.23 | 0.03 | 85 | 1007.7 |
| 20260507074825 | 57 | 24 | 3.0 | 8.0 | 0.00 | 0.23 | 0.03 | 85 | 1007.7 |
| 20260507074325 | 58 | 43 | 2.0 | 8.0 | 0.00 | 0.23 | 0.03 | 84 | 1007.7 |
| 20260507073827 | 58 | 49 | 2.0 | 8.0 | 0.00 | 0.23 | 0.03 | 83 | 1007.5 |
| 20260507073320 | 58 | 79 | 2.0 | 9.0 | 0.00 | 0.23 | 0.03 | 83 | 1007.5 |
| 20260507072814 | 58 | 336 | 3.0 | 11.0 | 0.00 | 0.23 | 0.03 | 82 | 1007.4 |
| 20260507072314 | 58 | 64 | 3.0 | 11.0 | 0.00 | 0.23 | 0.03 | 84 | 1007.5 |
| 20260507071815 | 58 | 18 | 3.0 | 8.0 | 0.00 | 0.23 | 0.03 | 85 | 1007.5 |
| 20260507071315 | 58 | 70 | 3.0 | 8.0 | 0.00 | 0.23 | 0.03 | 86 | 1007.5 |
| 20260507070816 | 58 | 32 | 2.0 | 8.0 | 0.00 | 0.23 | 0.03 | 86 | 1007.4 |
| 20260507070316 | 58 | 31 | 1.0 | 6.0 | 0.00 | 0.23 | 0.03 | 87 | 1007.5 |
| 20260507065810 | 58 | 53 | 1.0 | 8.0 | 0.01 | 0.23 | 0.03 | 88 | 1007.4 |
| 20260507065310 | 58 | 65 | 2.0 | 8.0 | 0.01 | 0.23 | 0.03 | 88 | 1007.3 |
| 20260507064812 | 58 | 65 | 2.0 | 6.0 | 0.01 | 0.23 | 0.03 | 89 | 1007.5 |
| 20260507064312 | 58 | 333 | 2.0 | 8.0 | 0.01 | 0.23 | 0.03 | 89 | 1007.5 |
| 20260507063810 | 58 | 32 | 2.0 | 8.0 | 0.01 | 0.23 | 0.03 | 89 | 1007.6 |
| 20260507063312 | 58 | 113 | 1.0 | 5.0 | 0.01 | 0.23 | 0.03 | 89 | 1007.5 |
| 20260507062806 | 58 | 340 | 2.0 | 9.0 | 0.01 | 0.23 | 0.03 | 89 | 1007.4 |
| 20260507062308 | 58 | 329 | 2.0 | 9.0 | 0.01 | 0.23 | 0.03 | 89 | 1007.3 |
| 20260507061807 | 58 | 69 | 3.0 | 8.0 | 0.01 | 0.23 | 0.03 | 89 | 1007.2 |
| 20260507060808 | 59 | 12 | 1.0 | 9.0 | 0.01 | 0.23 | 0.03 | 88 | 1007.3 |
| 20260507060310 | 59 | 91 | 1.0 | 5.0 | 0.01 | 0.23 | 0.03 | 88 | 1007.2 |
| 20260507055804 | 59 | 23 | 1.0 | 5.0 | 0.00 | 0.22 | 0.02 | 87 | 1007.5 |
| 20260507055306 | 59 | 71 | 1.0 | 4.0 | 0.00 | 0.22 | 0.02 | 87 | 1007.5 |
| 20260507054817 | 60 | 346 | 2.0 | 10.0 | 0.00 | 0.22 | 0.02 | 86 | 1007.5 |
| 20260507054303 | 60 | 23 | 3.0 | 10.0 | 0.01 | 0.22 | 0.02 | 85 | 1007.3 |
| 20260507053802 | 60 | 32 | 3.0 | 9.0 | 0.01 | 0.22 | 0.02 | 86 | 1007.5 |
| 20260507053304 | 60 | 32 | 2.0 | 9.0 | 0.02 | 0.22 | 0.02 | 86 | 1007.6 |
| 20260507052300 | 60 | 12 | 2.0 | 6.0 | 0.02 | 0.22 | 0.02 | 85 | 1007.1 |
| 20260507051759 | 60 | 91 | 1.0 | 5.0 | 0.02 | 0.22 | 0.02 | 84 | 1006.8 |
| 20260507051258 | 60 | 53 | 1.0 | 5.0 | 0.02 | 0.22 | 0.02 | 84 | 1007.2 |
| 20260507050759 | 61 | 85 | 1.0 | 5.0 | 0.02 | 0.22 | 0.02 | 84 | 1007.5 |
| 20260507050259 | 61 | 27 | 1.0 | 7.0 | 0.02 | 0.22 | 0.02 | 83 | 1007.7 |
| 20260507045754 | 61 | 345 | 1.0 | 7.0 | 0.02 | 0.22 | 0.02 | 82 | 1007.6 |
| 20260507045255 | 61 | 309 | 1.0 | 4.0 | 0.02 | 0.22 | 0.02 | 82 | 1007.5 |
| 20260507044755 | 62 | 311 | 0.0 | 4.0 | 0.02 | 0.22 | 0.02 | 80 | 1007.7 |
| 20260507044255 | 62 | 76 | 1.0 | 6.0 | 0.01 | 0.21 | 0.01 | 79 | 1007.3 |
| 20260507043754 | 62 | 76 | 2.0 | 6.0 | 0.01 | 0.21 | 0.01 | 78 | 1007.5 |
| 20260507042750 | 63 | 300 | 2.0 | 7.0 | 0.00 | 0.20 | 0.00 | 75 | 1007.7 |
| 20260507042251 | 63 | 24 | 3.0 | 10.0 | 0.00 | 0.20 | 0.00 | 74 | 1007.5 |
| 20260507041752 | 63 | 43 | 2.0 | 10.0 | 0.00 | 0.20 | 0.00 | 77 | 1007.5 |
| 20260507041252 | 63 | 37 | 1.0 | 5.0 | 0.00 | 0.20 | 0.00 | 81 | 1007.6 |
| 20260507040750 | 63 | 65 | 1.0 | 5.0 | 0.00 | 0.20 | 0.00 | 81 | 1007.3 |
| 20260507040252 | 63 | 324 | 1.0 | 6.0 | 0.00 | 0.20 | 0.00 | 81 | 1007.3 |
| 20260507035745 | 64 | 24 | 2.0 | 6.0 | 0.00 | 0.20 | 0.20 | 81 | 1007.1 |
| 20260507035247 | 64 | 348 | 3.0 | 7.0 | 0.00 | 0.20 | 0.20 | 80 | 1006.9 |
| 20260507034746 | 65 | 350 | 3.0 | 7.0 | 0.00 | 0.20 | 0.20 | 79 | 1007.1 |
| 20260507034248 | 65 | 5 | 4.0 | 10.0 | 0.00 | 0.20 | 0.20 | 77 | 1007.1 |
| 20260507033745 | 65 | 29 | 3.0 | 11.0 | 0.00 | 0.20 | 0.20 | 75 | 1007.1 |
| 20260507033247 | 66 | 11 | 2.0 | 11.0 | 0.00 | 0.20 | 0.20 | 74 | 1007.2 |
| 20260507032742 | 66 | 82 | 1.0 | 4.0 | 0.00 | 0.20 | 0.20 | 73 | 1006.9 |
| 20260507032242 | 66 | 342 | 1.0 | 6.0 | 0.00 | 0.20 | 0.20 | 73 | 1007.0 |
| 20260507031745 | 66 | 340 | 2.0 | 7.0 | 0.00 | 0.20 | 0.20 | 73 | 1006.9 |
| 20260507031243 | 66 | 322 | 2.0 | 9.0 | 0.00 | 0.20 | 0.20 | 72 | 1006.6 |
| 20260507030741 | 66 | 339 | 3.0 | 9.0 | 0.00 | 0.20 | 0.20 | 73 | 1006.4 |
| 20260507025737 | 66 | 53 | 3.0 | 10.0 | 0.00 | 0.20 | 0.20 | 75 | 1006.5 |
| 20260507025238 | 66 | 341 | 4.0 | 11.0 | 0.00 | 0.20 | 0.20 | 75 | 1006.6 |
| 20260507024738 | 67 | 30 | 5.0 | 11.0 | 0.00 | 0.20 | 0.20 | 75 | 1006.7 |
| 20260507024237 | 67 | 49 | 4.0 | 14.0 | 0.00 | 0.20 | 0.20 | 76 | 1006.6 |
| 20260507023735 | 67 | 15 | 3.0 | 14.0 | 0.00 | 0.20 | 0.20 | 76 | 1006.4 |
| 20260507022731 | 68 | 31 | 3.0 | 9.0 | 0.00 | 0.20 | 0.20 | 77 | 1006.1 |
| 20260507022233 | 68 | 24 | 4.0 | 9.0 | 0.00 | 0.20 | 0.20 | 78 | 1006.1 |
| 20260507021730 | 68 | 1 | 4.0 | 9.0 | 0.00 | 0.20 | 0.20 | 78 | 1006.3 |
| 20260507021231 | 68 | 11 | 4.0 | 10.0 | 0.00 | 0.20 | 0.20 | 78 | 1006.1 |
| 20260507020731 | 68 | 37 | 3.0 | 10.0 | 0.00 | 0.20 | 0.20 | 79 | 1006.0 |
| 20260507020230 | 69 | 41 | 2.0 | 8.0 | 0.00 | 0.20 | 0.20 | 81 | 1005.9 |
| 20260507015728 | 70 | 62 | 1.0 | 7.0 | 0.00 | 0.20 | 0.20 | 80 | 1005.9 |
| 20260507015228 | 70 | 327 | 1.0 | 6.0 | 0.00 | 0.20 | 0.20 | 79 | 1005.9 |
| 20260507014225 | 70 | 250 | 0.0 | 0.0 | 0.00 | 0.20 | 0.20 | 79 | 1005.8 |
| 20260507013725 | 70 | 250 | 0.0 | 0.0 | 0.00 | 0.20 | 0.20 | 79 | 1005.9 |
| 20260507013218 | 70 | 251 | 1.0 | 3.0 | 0.00 | 0.20 | 0.20 | 79 | 1006.0 |
| 20260507012716 | 70 | 210 | 1.0 | 4.0 | 0.00 | 0.20 | 0.20 | 79 | 1005.9 |
| 20260507012215 | 70 | 209 | 1.0 | 4.0 | 0.00 | 0.20 | 0.20 | 78 | 1006.1 |
| 20260507011715 | 70 | 214 | 0.0 | 2.0 | 0.00 | 0.20 | 0.20 | 78 | 1006.1 |
| 20260507011216 | 70 | 229 | 0.0 | 1.0 | 0.00 | 0.20 | 0.20 | 78 | 1006.1 |
| 20260507010711 | 70 | 233 | 0.0 | 1.0 | 0.00 | 0.20 | 0.20 | 78 | 1006.2 |
| 20260507010213 | 70 | 229 | 0.0 | 2.0 | 0.00 | 0.20 | 0.20 | 78 | 1006.2 |
| 20260507005713 | 70 | 235 | 1.0 | 4.0 | 0.00 | 0.20 | 0.20 | 78 | 1006.1 |
| 20260507005211 | 70 | 225 | 1.0 | 4.0 | 0.00 | 0.20 | 0.20 | 78 | 1006.0 |
| 20260507004210 | 70 | 217 | 0.0 | 2.0 | 0.00 | 0.20 | 0.20 | 79 | 1005.8 |
| 20260507003709 | 70 | 207 | 0.0 | 2.0 | 0.00 | 0.20 | 0.20 | 79 | 1005.8 |
| 20260507003209 | 70 | 204 | 0.0 | 2.0 | 0.00 | 0.20 | 0.20 | 79 | 1005.9 |
| 20260507002201 | 70 | 221 | 0.0 | 2.0 | 0.00 | 0.20 | 0.20 | 78 | 1005.7 |
| 20260507001701 | 70 | 212 | 0.0 | 2.0 | 0.00 | 0.20 | 0.20 | 78 | 1005.6 |
| 20260507001158 | 70 | 248 | 0.0 | 3.0 | 0.00 | 0.20 | 0.20 | 78 | 1005.6 |
| 20260507000659 | 70 | 212 | 0.0 | 3.0 | 0.00 | 0.20 | 0.20 | 78 | 1005.6 |
| 20260507000158 | 70 | 296 | 0.0 | 4.0 | 0.00 | 0.20 | 0.20 | 78 | 1005.7 |
| 20260506235655 | 70 | 309 | 0.0 | 4.0 | 0.00 | 0.20 | 0.20 | 78 | 1005.6 |
| 20260506235153 | 70 | 200 | 1.0 | 4.0 | 0.00 | 0.20 | 0.20 | 78 | 1005.5 |
| 20260506234152 | 70 | 228 | 1.0 | 5.0 | 0.00 | 0.20 | 0.20 | 78 | 1005.3 |
| 20260506233649 | 70 | 215 | 0.0 | 5.0 | 0.00 | 0.20 | 0.20 | 78 | 1005.3 |
| 20260506233150 | 70 | 204 | 1.0 | 6.0 | 0.00 | 0.20 | 0.20 | 78 | 1005.3 |
| 20260506232149 | 70 | 188 | 2.0 | 6.0 | 0.00 | 0.20 | 0.20 | 78 | 1005.3 |
| 20260506231646 | 70 | 222 | 2.0 | 5.0 | 0.00 | 0.20 | 0.20 | 78 | 1005.1 |
| 20260506231145 | 70 | 203 | 2.0 | 6.0 | 0.00 | 0.20 | 0.20 | 77 | 1005.1 |
| 20260506230641 | 70 | 257 | 1.0 | 6.0 | 0.00 | 0.20 | 0.20 | 78 | 1005.2 |
| 20260506230142 | 70 | 174 | 2.0 | 8.0 | 0.00 | 0.20 | 0.20 | 77 | 1005.0 |
| 20260506225643 | 70 | 207 | 3.0 | 8.0 | 0.00 | 0.20 | 0.20 | 77 | 1004.9 |
| 20260506224643 | 70 | 180 | 3.0 | 7.0 | 0.00 | 0.20 | 0.20 | 78 | 1005.0 |
| 20260506223636 | 70 | 172 | 4.0 | 9.0 | 0.00 | 0.20 | 0.20 | 77 | 1005.1 |
| 20260506223135 | 71 | 245 | 4.0 | 13.0 | 0.00 | 0.20 | 0.20 | 76 | 1005.1 |
| 20260506222633 | 71 | 238 | 4.0 | 13.0 | 0.00 | 0.20 | 0.20 | 76 | 1004.8 |
| 20260506222132 | 71 | 219 | 3.0 | 10.0 | 0.00 | 0.20 | 0.20 | 76 | 1004.9 |
| 20260506221125 | 71 | 177 | 5.0 | 11.0 | 0.00 | 0.20 | 0.20 | 76 | 1005.0 |
| 20260506220127 | 71 | 206 | 4.0 | 12.0 | 0.00 | 0.20 | 0.20 | 76 | 1004.9 |
| 20260506215625 | 71 | 260 | 3.0 | 11.0 | 0.00 | 0.20 | 0.20 | 76 | 1005.0 |
| 20260506215126 | 71 | 173 | 4.0 | 13.0 | 0.00 | 0.20 | 0.20 | 76 | 1004.9 |
| 20260506214626 | 71 | 235 | 5.0 | 13.0 | 0.00 | 0.20 | 0.20 | 76 | 1005.0 |
| 20260506214127 | 71 | 205 | 5.0 | 14.0 | 0.00 | 0.20 | 0.20 | 76 | 1005.1 |
| 20260506213619 | 71 | 153 | 4.0 | 14.0 | 0.00 | 0.20 | 0.20 | 75 | 1005.1 |
| 20260506213119 | 71 | 204 | 3.0 | 14.0 | 0.00 | 0.20 | 0.20 | 76 | 1005.0 |
| 20260506212619 | 71 | 263 | 6.0 | 16.0 | 0.00 | 0.20 | 0.20 | 76 | 1005.0 |
| 20260506212120 | 71 | 177 | 6.0 | 16.0 | 0.00 | 0.20 | 0.20 | 75 | 1004.8 |
| 20260506211120 | 71 | 179 | 4.0 | 11.0 | 0.00 | 0.20 | 0.20 | 75 | 1004.9 |
| 20260506210620 | 71 | 203 | 4.0 | 11.0 | 0.00 | 0.20 | 0.20 | 75 | 1004.7 |
| 20260506210115 | 71 | 204 | 5.0 | 13.0 | 0.00 | 0.20 | 0.20 | 75 | 1004.6 |
| 20260506205615 | 71 | 153 | 5.0 | 13.0 | 0.00 | 0.20 | 0.20 | 75 | 1004.6 |
| 20260506205114 | 71 | 187 | 5.0 | 13.0 | 0.00 | 0.20 | 0.20 | 75 | 1004.7 |
| 20260506204613 | 71 | 221 | 4.0 | 10.0 | 0.00 | 0.20 | 0.20 | 75 | 1004.6 |
| 20260506204113 | 71 | 333 | 5.0 | 11.0 | 0.00 | 0.20 | 0.20 | 75 | 1004.6 |
| 20260506203613 | 71 | 250 | 5.0 | 12.0 | 0.00 | 0.20 | 0.20 | 75 | 1004.4 |
| 20260506203114 | 71 | 359 | 5.0 | 12.0 | 0.00 | 0.20 | 0.20 | 75 | 1004.5 |
| 20260506202610 | 71 | 219 | 5.0 | 12.0 | 0.00 | 0.20 | 0.20 | 74 | 1004.6 |
| 20260506202110 | 71 | 201 | 4.0 | 14.0 | 0.00 | 0.20 | 0.20 | 75 | 1004.6 |
| 20260506201609 | 71 | 243 | 5.0 | 14.0 | 0.00 | 0.20 | 0.20 | 76 | 1004.5 |
| 20260506201109 | 70 | 208 | 7.0 | 15.0 | 0.00 | 0.20 | 0.20 | 77 | 1004.6 |
| 20260506200111 | 70 | 255 | 5.0 | 13.0 | 0.00 | 0.20 | 0.20 | 76 | 1004.8 |
| 20260506195610 | 70 | 212 | 5.0 | 12.0 | 0.00 | 0.20 | 0.20 | 76 | 1004.7 |
| 20260506195103 | 70 | 206 | 5.0 | 12.0 | 0.00 | 0.20 | 0.20 | 77 | 1004.8 |
| 20260506194603 | 70 | 158 | 5.0 | 12.0 | 0.00 | 0.20 | 0.20 | 76 | 1004.8 |
| 20260506194104 | 70 | 255 | 6.0 | 13.0 | 0.00 | 0.20 | 0.20 | 77 | 1004.8 |
| 20260506193605 | 70 | 238 | 5.0 | 13.0 | 0.00 | 0.20 | 0.20 | 76 | 1004.8 |
| 20260506193103 | 70 | 226 | 5.0 | 18.0 | 0.00 | 0.20 | 0.20 | 77 | 1004.7 |
| 20260506192603 | 70 | 199 | 7.0 | 18.0 | 0.00 | 0.20 | 0.20 | 76 | 1005.0 |
| 20260506192100 | 70 | 330 | 7.0 | 18.0 | 0.00 | 0.20 | 0.20 | 76 | 1004.8 |
| 20260506191557 | 70 | 172 | 6.0 | 18.0 | 0.00 | 0.20 | 0.20 | 76 | 1004.9 |
| 20260506191057 | 70 | 225 | 5.0 | 15.0 | 0.00 | 0.20 | 0.20 | 77 | 1005.1 |
| 20260506190557 | 69 | 202 | 3.0 | 14.0 | 0.00 | 0.20 | 0.20 | 77 | 1005.1 |
| 20260506190058 | 69 | 191 | 5.0 | 14.0 | 0.00 | 0.20 | 0.20 | 78 | 1005.1 |
| 20260506185558 | 69 | 326 | 6.0 | 16.0 | 0.00 | 0.20 | 0.20 | 78 | 1005.2 |
| 20260506185057 | 69 | 204 | 6.0 | 16.0 | 0.00 | 0.20 | 0.20 | 78 | 1005.3 |
| 20260506184555 | 69 | 231 | 5.0 | 15.0 | 0.00 | 0.20 | 0.20 | 78 | 1005.2 |
| 20260506183555 | 69 | 221 | 5.0 | 11.0 | 0.00 | 0.20 | 0.20 | 78 | 1005.3 |
| 20260506183053 | 69 | 160 | 5.0 | 13.0 | 0.00 | 0.20 | 0.20 | 78 | 1005.4 |
| 20260506182553 | 69 | 210 | 4.0 | 13.0 | 0.00 | 0.20 | 0.20 | 78 | 1005.5 |
| 20260506182053 | 69 | 233 | 4.0 | 11.0 | 0.00 | 0.20 | 0.20 | 78 | 1005.5 |
| 20260506181556 | 69 | 229 | 5.0 | 16.0 | 0.00 | 0.20 | 0.20 | 78 | 1005.5 |
| 20260506181052 | 69 | 271 | 6.0 | 17.0 | 0.00 | 0.20 | 0.20 | 78 | 1005.5 |
| 20260506180554 | 69 | 236 | 6.0 | 17.0 | 0.00 | 0.20 | 0.20 | 78 | 1005.7 |
| 20260506180049 | 69 | 155 | 5.0 | 15.0 | 0.00 | 0.20 | 0.20 | 78 | 1005.6 |
| 20260506175549 | 69 | 192 | 4.0 | 13.0 | 0.00 | 0.20 | 0.20 | 79 | 1005.6 |
| 20260506175050 | 68 | 212 | 5.0 | 16.0 | 0.00 | 0.20 | 0.20 | 81 | 1005.7 |
| 20260506174550 | 67 | 5 | 6.0 | 16.0 | 0.00 | 0.20 | 0.20 | 80 | 1005.9 |
| 20260506174051 | 67 | 203 | 4.0 | 11.0 | 0.00 | 0.20 | 0.20 | 81 | 1005.8 |
| 20260506173545 | 67 | 239 | 4.0 | 13.0 | 0.00 | 0.20 | 0.20 | 81 | 1005.8 |
| 20260506173046 | 67 | 210 | 6.0 | 13.0 | 0.00 | 0.20 | 0.20 | 82 | 1005.8 |
| 20260506172546 | 67 | 248 | 6.0 | 16.0 | 0.00 | 0.20 | 0.20 | 82 | 1005.8 |
| 20260506172047 | 66 | 221 | 6.0 | 16.0 | 0.00 | 0.20 | 0.20 | 82 | 1005.8 |
| 20260506171545 | 66 | 238 | 6.0 | 17.0 | 0.00 | 0.20 | 0.20 | 82 | 1006.0 |
| 20260506171044 | 66 | 195 | 6.0 | 17.0 | 0.00 | 0.20 | 0.20 | 83 | 1005.9 |
| 20260506170537 | 66 | 243 | 7.0 | 20.0 | 0.00 | 0.20 | 0.20 | 83 | 1006.1 |
| 20260506170039 | 66 | 186 | 8.0 | 20.0 | 0.00 | 0.20 | 0.20 | 83 | 1006.0 |
| 20260506165540 | 66 | 211 | 7.0 | 20.0 | 0.00 | 0.20 | 0.20 | 83 | 1006.1 |
| 20260506164538 | 66 | 183 | 7.0 | 19.0 | 0.00 | 0.20 | 0.20 | 85 | 1005.9 |
| 20260506164037 | 65 | 215 | 7.0 | 17.0 | 0.00 | 0.20 | 0.20 | 86 | 1006.1 |
| 20260506163533 | 65 | 212 | 7.0 | 17.0 | 0.00 | 0.20 | 0.20 | 86 | 1006.1 |
| 20260506163032 | 65 | 204 | 8.0 | 22.0 | 0.00 | 0.20 | 0.20 | 87 | 1006.1 |
| 20260506162532 | 65 | 186 | 7.0 | 22.0 | 0.00 | 0.20 | 0.20 | 87 | 1006.1 |
| 20260506161532 | 64 | 159 | 6.0 | 19.0 | 0.02 | 0.20 | 0.20 | 88 | 1006.1 |
| 20260506160527 | 64 | 158 | 7.0 | 22.0 | 0.03 | 0.20 | 0.20 | 89 | 1006.2 |
| 20260506160027 | 64 | 312 | 7.0 | 22.0 | 0.03 | 0.20 | 0.20 | 90 | 1006.1 |
| 20260506155526 | 64 | 222 | 5.0 | 15.0 | 0.04 | 0.20 | 0.20 | 91 | 1006.2 |
| 20260506155027 | 64 | 191 | 6.0 | 17.0 | 0.04 | 0.20 | 0.20 | 91 | 1006.4 |
| 20260506154527 | 63 | 266 | 6.0 | 17.0 | 0.05 | 0.20 | 0.20 | 92 | 1006.5 |
| 20260506153521 | 63 | 192 | 5.0 | 11.0 | 0.05 | 0.20 | 0.20 | 93 | 1006.6 |
| 20260506153022 | 62 | 190 | 6.0 | 16.0 | 0.06 | 0.20 | 0.20 | 92 | 1006.5 |
| 20260506152523 | 62 | 198 | 5.0 | 16.0 | 0.06 | 0.20 | 0.20 | 92 | 1006.4 |
| 20260506151521 | 62 | 222 | 4.0 | 12.0 | 0.06 | 0.18 | 0.18 | 92 | 1006.8 |
| 20260506151021 | 62 | 200 | 5.0 | 12.0 | 0.07 | 0.17 | 0.18 | 91 | 1006.9 |
| 20260506150518 | 62 | 232 | 4.0 | 13.0 | 0.08 | 0.17 | 0.17 | 91 | 1007.0 |
| 20260506145517 | 62 | 211 | 4.0 | 12.0 | 0.08 | 0.16 | 0.17 | 91 | 1007.2 |
| 20260506144514 | 62 | 245 | 4.0 | 12.0 | 0.10 | 0.15 | 0.15 | 91 | 1007.2 |
| 20260506144015 | 62 | 176 | 5.0 | 12.0 | 0.11 | 0.15 | 0.15 | 91 | 1007.2 |
| 20260506143008 | 62 | 155 | 5.0 | 11.0 | 0.12 | 0.14 | 0.14 | 91 | 1007.3 |
| 20260506142008 | 62 | 160 | 3.0 | 9.0 | 0.12 | 0.13 | 0.13 | 90 | 1007.2 |
| 20260506141519 | 62 | 238 | 3.0 | 12.0 | 0.11 | 0.12 | 0.12 | 90 | 1007.1 |
| 20260506141008 | 62 | 187 | 4.0 | 12.0 | 0.09 | 0.10 | 0.11 | 89 | 1007.2 |
| 20260506140502 | 63 | 240 | 3.0 | 9.0 | 0.08 | 0.09 | 0.09 | 89 | 1007.4 |
| 20260506140001 | 63 | 198 | 4.0 | 9.0 | 0.08 | 0.08 | 0.08 | 89 | 1007.2 |
| 20260506135504 | 63 | 197 | 4.0 | 11.0 | 0.08 | 0.08 | 0.08 | 88 | 1007.2 |
| 20260506135002 | 63 | 187 | 4.0 | 11.0 | 0.06 | 0.06 | 0.06 | 88 | 1007.4 |
| 20260506134503 | 63 | 170 | 3.0 | 12.0 | 0.05 | 0.05 | 0.05 | 87 | 1007.4 |
| 20260506134001 | 63 | 138 | 3.0 | 12.0 | 0.04 | 0.04 | 0.04 | 86 | 1007.5 |
| 20260506133458 | 64 | 200 | 4.0 | 13.0 | 0.03 | 0.03 | 0.03 | 85 | 1007.6 |
| 20260506132958 | 64 | 27 | 4.0 | 13.0 | 0.02 | 0.02 | 0.02 | 84 | 1007.7 |
| 20260506132457 | 64 | 284 | 4.0 | 12.0 | 0.01 | 0.01 | 0.01 | 83 | 1007.7 |
| 20260506131957 | 64 | 120 | 4.0 | 12.0 | 0.01 | 0.01 | 0.01 | 83 | 1007.7 |
| 20260506131456 | 64 | 221 | 5.0 | 13.0 | 0.01 | 0.01 | 0.01 | 82 | 1007.6 |
| 20260506130958 | 64 | 193 | 4.0 | 13.0 | 0.01 | 0.01 | 0.01 | 81 | 1007.4 |
| 20260506130453 | 65 | 214 | 3.0 | 11.0 | 0.00 | 0.00 | 0.01 | 81 | 1007.2 |
| 20260506125451 | 65 | 190 | 4.0 | 12.0 | 0.00 | 0.00 | 0.00 | 82 | 1007.0 |
| 20260506124954 | 65 | 180 | 4.0 | 10.0 | 0.00 | 0.00 | 0.00 | 82 | 1006.8 |
| 20260506124452 | 65 | 226 | 4.0 | 10.0 | 0.00 | 0.00 | 0.00 | 82 | 1006.8 |
| 20260506123952 | 65 | 235 | 4.0 | 13.0 | 0.00 | 0.00 | 0.00 | 82 | 1006.7 |
| 20260506123452 | 65 | 203 | 4.0 | 13.0 | 0.00 | 0.00 | 0.00 | 81 | 1006.8 |
| 20260506122947 | 65 | 211 | 4.0 | 13.0 | 0.00 | 0.00 | 0.00 | 80 | 1007.0 |
| 20260506122448 | 65 | 204 | 4.0 | 13.0 | 0.00 | 0.00 | 0.00 | 78 | 1007.1 |
| 20260506121947 | 66 | 201 | 4.0 | 13.0 | 0.00 | 0.00 | 0.00 | 77 | 1007.2 |
| 20260506121449 | 66 | 269 | 5.0 | 13.0 | 0.00 | 0.00 | 0.00 | 77 | 1007.3 |
| 20260506120446 | 66 | 229 | 4.0 | 11.0 | 0.00 | 0.00 | 0.00 | 76 | 1007.4 |
| 20260506115939 | 66 | 200 | 5.0 | 12.0 | 0.00 | 0.00 | 0.00 | 75 | 1007.5 |
| 20260506115441 | 66 | 185 | 6.0 | 12.0 | 0.00 | 0.00 | 0.00 | 75 | 1007.2 |
| 20260506113941 | 66 | 215 | 5.0 | 13.0 | 0.00 | 0.00 | 0.00 | 75 | 1007.1 |
| 20260506113441 | 66 | 253 | 5.0 | 14.0 | 0.00 | 0.00 | 0.00 | 75 | 1007.0 |
| 20260506111933 | 67 | 217 | 6.0 | 16.0 | 0.00 | 0.00 | 0.00 | 74 | 1006.8 |
| 20260506111434 | 67 | 215 | 5.0 | 16.0 | 0.00 | 0.00 | 0.00 | 73 | 1006.7 |
| 20260506110934 | 67 | 188 | 5.0 | 19.0 | 0.00 | 0.00 | 0.00 | 73 | 1006.7 |
| 20260506110434 | 67 | 207 | 6.0 | 19.0 | 0.00 | 0.00 | 0.00 | 73 | 1006.7 |
| 20260506105929 | 67 | 186 | 6.0 | 17.0 | 0.00 | 0.00 | 0.00 | 73 | 1006.6 |
| 20260506105425 | 67 | 224 | 5.0 | 17.0 | 0.00 | 0.00 | 0.00 | 73 | 1006.5 |
| 20260506104925 | 67 | 236 | 5.0 | 14.0 | 0.00 | 0.00 | 0.00 | 73 | 1006.6 |
| 20260506104427 | 67 | 258 | 6.0 | 20.0 | 0.00 | 0.00 | 0.00 | 73 | 1006.5 |
| 20260506103924 | 67 | 172 | 6.0 | 20.0 | 0.00 | 0.00 | 0.00 | 73 | 1006.6 |
| 20260506102918 | 67 | 228 | 5.0 | 12.0 | 0.00 | 0.00 | 0.00 | 73 | 1006.5 |
| 20260506101918 | 67 | 224 | 4.0 | 12.0 | 0.00 | 0.00 | 0.00 | 73 | 1006.5 |